STARLINK-32588, 61866

Orbit data source: Space-Track

STARLINK-32588, 61866 is a payload satellite owned by SpaceX/Seattle (US) in LEO that was launched on Thu, 07 Nov 2024 UTC via an FALCON 9 launch vehicle from the Air Force Eastern Test Range (AFETR). Payload-class satellites include a variety of spacecraft equipped with specific instruments for various scientific and technological missions. These include communications satellites like Starlink; space stations such as the ISS; scientific satellites like the Hubble; Earth observation satellites from companies like Planet Labs, Umbra, and HawkEye 360; GPS; miniature CubeSats for education and research; and military/defense satellites.

Loading next visibility...
Identifier
61866, 2024-202X
Orbit
LEO
Country
Flag of USUS
Related business
Manufacturer
SpaceX/Seattle
Mission
Operational Commercial Communications
Bus & Motor
STARLINK V2M, Unknown motor
Mass
730 kg wet, ~700 kg dry
Launch date (UTC)
2024-11-07 (1 year ago)
Launch vehicle
FALCON 9
Launch site
Air Force Eastern Test Range (AFETR)
Object type
Payload
Rocket body
Debris
Shape & HBR
Box + 2 Pan, 17.7 m
Radar Cross Section
33.884 m², Large (>1 m²)

Expand to show TLE details & history
Last TLE update: 12 hours ago

TLE from 12 hours ago
0 STARLINK-32588
1 61866U 24202X   26121.77761230 -.00000642  00000-0 -13803-4 0  9995
2 61866  43.0007 298.4446 0000850 277.3478  82.7277 15.27575193 83459
Epoch: 2026-05-01T18:39Z
TLE epoch observation values (Epoch: 2026-05-01T18:39:45.702Z)
Latitude
-0.00003°
Longitude
158.79915°
Altitude
482.765 km
Speed
7.626 km/s
True Right ascension
19h 53m 46s
True Declination
0° 00' 00"
Sunlit
Object was in daylight at epoch
Visualization orbit readout
Latitude
Unknown
Longitude
Unknown
Altitude
Unknown
Speed
Unknown
Apparent Right ascension
Unknown
Apparent Declination
Unknown
Sunlit
N/A
Visualization observer readout
Local Sidereal Time
14:42:53
Azimuth
Unknown
Elevation
Unknown
Doppler factor
Unknown
Orbital elements
Apogee altitude
485.592 km
Perigee altitude
484.425 km
Semi-major axis
6,863.146 km
Eccentricity
0.00009
Inclination
43.0007°
RAAN
298.4446°
Arg. of periapsis
277.3478°
True anomaly
82.73736°
Mean anomaly
82.7277°
Eccentric anomaly
82.73253°
Mean motion
3.81732 °/min
Orbital period
94.31 mins
BSTAR
-0.000013803
Loading maneuver chart data...
Computing Atmospheric mass density...
Loading historical data...
Loading historical data...
Loading historical data...
Loading historical data...
Loading historical data...
Loading historical data...
Loading historical data...

Documentation

Showing up to 5 results
|